Regional Weather Roundup
Issued by NWS Lake Charles, LA

Current Version | Previous Version | Text Only | Print | Product List | Glossary On
Versions: 1 2 3 4 5 6 7 8 9 10 11 12 13 14 15 16 17 18 19 20 21 22 23 24 25 26 27 28 29 30 31 32 33 34 35 36 37 38 39 40 41 42 43 44 45 46 47 48 49 50
000
ASUS44 KLCH 211610
RWRLCH
RWRLCH
REGIONAL WEATHER ROUNDUP
NATIONAL WEATHER SERVICE LAKE CHARLES LA
1000 AM CST FRI NOV 21 2014

Note: "fair" indicates few or no clouds below 12,000 feet with no
significant weather and/or obstructions to visibility.


ACROSS SOUTHEAST TEXAS

CITY           SKY/WX    TMP DP  RH WIND       PRES   REMARKS
BEAUMONT       LGT RAIN  64  61  90 E10       30.21R
BEAUMONT CITY  CLOUDY    62  61  95 E9        30.21S
ORANGE         LGT RAIN  62  61  97 E10       30.23S
JASPER         CLOUDY    60  56  88 E8        30.24S
$$

ACROSS CENTRAL LOUISIANA

CITY           SKY/WX    TMP DP  RH WIND       PRES   REMARKS
LEESVILLE      NOT AVBL
FULLERTON        N/A     66  52  60 VRB3      30.22S
ALEXANDRIA INT CLOUDY    60  50  69 SE12      30.26R
ESLER FIELD    CLOUDY    61  50  67 SE7       30.27S
DERIDDER       CLOUDY    60  56  85 E5        30.25S
OAKDALE        PTSUNNY   62  53  73 SE5       30.26S
OPELOUSAS      CLOUDY    65  49  56 SE10      30.27S
$$

ACROSS SOUTHWEST AND SOUTH CENTRAL LOUISIANA

CITY           SKY/WX    TMP DP  RH WIND       PRES   REMARKS
SULPHUR        CLOUDY    64  55  71 E9        30.24R
LAKE CHARLES   CLOUDY    65  54  67 SE15      30.23R
CHENNAULT INT  PTSUNNY   66  54  63 SE14      30.24R
CAMERON PHI    SUNNY     61  55  82 E14       30.25S
DEQUINCY       CLOUDY    60  57  88 SE7       30.23S
JENNINGS       CLOUDY    65  53  66 SE10      30.25R
LAFAYETTE      MOSUNNY   67  48  50 SE7       30.27R
NEW IBERIA     SUNNY     69  50  50 SE15      30.27S
ABBEVILLE        N/A     68  52  55 SE10G16   30.26S
PATTERSON      SUNNY     66  52  59 SE9       30.31R
SALT POINT       N/A     69  53  56 SE8       30.26S
$$

SELECTED SITES ACROSS THE REGION

CITY           SKY/WX    TMP DP  RH WIND       PRES   REMARKS
HOUSTON BUSH   LGT RAIN  64  63  94 SE12      30.17R FOG
HOUSTON HOBBY  RAIN      64  64 100 E6        30.16F
GALVESTON      CLOUDY    67  64  90 SE13      30.16S
COLLEGE STAT   CLOUDY    64  63  96 SE7       30.14R
CONROE         CLOUDY    64  62  93 SE7       30.18R
HUNTSVILLE     LGT RAIN  64  62  93 SE3       30.16S FOG
LUFKIN         LGT RAIN  62  58  86 SE15      30.18S
SHREVEPORT     LGT RAIN  57  56  96 SE7       30.23R FOG
MONROE         CLOUDY    59  50  72 S8        30.29R
NATCHEZ MS     CLOUDY    63  48  59 SE12      30.30S
BATON ROUGE    MOSUNNY   65  47  52 E9        30.30R
N.O. INTL ARPT MOSUNNY   67  46  47 SE10      30.32R
SLIDELL        SUNNY     65  48  54 E6        30.32R
$$

MARINE REPORTS

STATION/POSITION TIME  TEMP    WIND        PRES    VSBY  WAVE
                       AIR SEA DIR/SP/G                  HT/PER
                 (UTC) (F)     (DEG/KT/KT) (MB)    (MI)  (FT/S)
BUOY 30 S HIGH I 1600   65 61  130/ 10/ 10 1021.4R         4/ 7
SEA RIM ST PARK  1600   64      90/  9/ 12 1023.3R
PORT ARTHUR      1600      57   90/  3/  5 1023.0S
SABINE PASS N    1600   62 58  110/ 11/ 14 1022.4R
TEXAS POINT      NOT AVBL
CALCASIEU PASS   1600   60 57  120/ 13/ 17   N/A
LK CHARLES BEACH 1600   65 60              1023.7S
MARSH ISLAND     NOT AVBL
FRESH WATER LOCK 1600   63 54   90/ 13/ 18 1024.2S
AMERADA PASS     1600   64 55  100/ 10/ 12 1025.0S
$$



USA.gov is the U.S. government's official web portal to all federal, state and local government web resources and services.